Time,TemperatureF,DewpointF,PressureIn,WindDirection,WindDirectionDegrees,WindSpeedMPH,WindSpeedGustMPH,Humidity,HourlyPrecipIn,Conditions,Clouds,dailyrainin,SoftwareType,DateUTC
2013-12-08 00:22:00,3.0,-1.0,30.20,NNE,12,0.0,-999.0,81,-99.99,,,-99.99,,2013-12-08 07:22:00,
2013-12-08 00:42:00,2.0,-3.0,30.17,NNE,12,0.0,-999.0,80,-99.99,,,-99.99,,2013-12-08 07:42:00,
2013-12-08 00:53:00,2.0,-3.0,30.16,NNE,12,0.0,-999.0,80,-99.99,,,-99.99,,2013-12-08 07:53:00,
2013-12-08 01:22:00,1.0,-3.0,30.13,NNE,12,0.0,-999.0,81,-99.99,,,-99.99,,2013-12-08 08:22:00,
2013-12-08 01:42:00,1.0,-3.0,30.12,NNE,12,0.0,-999.0,82,-99.99,,,-99.99,,2013-12-08 08:42:00,
2013-12-08 01:52:00,2.0,-2.0,30.11,NNE,12,0.0,-999.0,83,-99.99,,,-99.99,,2013-12-08 08:52:00,
2013-12-08 02:22:00,2.0,-2.0,30.11,NNE,12,0.0,-999.0,82,-99.99,,,-99.99,,2013-12-08 09:22:00,
2013-12-08 02:43:00,3.0,-1.0,30.09,NNE,12,0.0,-999.0,82,-99.99,,,-99.99,,2013-12-08 09:43:00,
2013-12-08 02:53:00,3.0,-1.0,30.09,NNE,12,0.0,-999.0,82,-99.99,,,-99.99,,2013-12-08 09:53:00,
2013-12-08 03:23:00,3.0,-1.0,30.08,NNE,12,0.0,-999.0,82,-99.99,,,-99.99,,2013-12-08 10:23:00,
2013-12-08 03:43:00,3.0,-1.0,30.08,NNE,12,0.0,-999.0,82,-99.99,,,-99.99,,2013-12-08 10:43:00,
2013-12-08 03:53:00,3.0,-1.0,30.09,NNE,12,0.0,-999.0,83,-99.99,,,-99.99,,2013-12-08 10:53:00,
2013-12-08 04:22:00,4.0,0.0,30.08,NNE,12,0.0,-999.0,82,-99.99,,,-99.99,,2013-12-08 11:22:00,
2013-12-08 04:43:00,4.0,0.0,30.07,NNE,17,0.0,-999.0,82,-99.99,,,-99.99,,2013-12-08 11:43:00,
2013-12-08 04:52:00,6.0,1.0,30.06,South,178,0.0,-999.0,80,-99.99,,,-99.99,,2013-12-08 11:52:00,
2013-12-08 05:22:00,6.0,1.0,30.06,SSW,200,0.0,-999.0,79,-99.99,,,-99.99,,2013-12-08 12:22:00,
2013-12-08 05:42:00,6.0,1.0,30.06,SSW,200,0.0,-999.0,80,-99.99,,,-99.99,,2013-12-08 12:42:00,
2013-12-08 05:52:00,5.0,0.0,30.04,SSW,200,0.0,-999.0,80,-99.99,,,-99.99,,2013-12-08 12:52:00,
2013-12-08 06:22:00,4.0,-2.0,30.02,SSW,200,0.0,-999.0,75,-99.99,,,-99.99,,2013-12-08 13:22:00,
2013-12-08 06:42:00,4.0,-1.0,30.03,WSW,246,0.0,-999.0,80,-99.99,,,-99.99,,2013-12-08 13:42:00,
2013-12-08 06:52:00,4.0,-1.0,30.03,WSW,242,0.0,-999.0,78,-99.99,,,-99.99,,2013-12-08 13:52:00,
2013-12-08 07:22:00,4.0,-2.0,30.03,SSW,209,1.0,-999.0,75,-99.99,,,-99.99,,2013-12-08 14:22:00,
2013-12-08 07:42:00,3.0,-2.0,30.05,WSW,251,2.0,-999.0,78,-99.99,,,-99.99,,2013-12-08 14:42:00,
2013-12-08 07:52:00,2.0,-5.0,30.05,WSW,240,3.0,-999.0,73,-99.99,,,-99.99,,2013-12-08 14:52:00,
2013-12-08 08:22:00,2.0,-6.0,30.08,SSW,201,2.0,-999.0,70,-99.99,,,-99.99,,2013-12-08 15:22:00,
2013-12-08 08:54:00,3.0,-4.0,30.10,WNW,286,1.0,-999.0,71,-99.99,,,-99.99,,2013-12-08 15:54:00,
2013-12-08 09:23:00,4.0,-4.0,30.12,SW,227,1.0,-999.0,68,-99.99,,,-99.99,,2013-12-08 16:23:00,
2013-12-08 09:43:00,4.0,-4.0,30.13,SW,228,1.0,-999.0,68,-99.99,,,-99.99,,2013-12-08 16:43:00,
2013-12-08 09:53:00,4.0,-4.0,30.12,SSW,211,1.0,-999.0,67,-99.99,,,-99.99,,2013-12-08 16:53:00,
2013-12-08 10:12:00,5.0,-5.0,30.12,SSW,204,2.0,-999.0,63,-99.99,,,-99.99,,2013-12-08 17:12:00,
2013-12-08 10:22:00,6.0,-3.0,30.14,SW,217,1.0,-999.0,65,-99.99,,,-99.99,,2013-12-08 17:22:00,
2013-12-08 10:42:00,4.0,-4.0,30.15,North,5,1.0,-999.0,70,-99.99,,,-99.99,,2013-12-08 17:42:00,
2013-12-08 10:52:00,3.0,-4.0,30.15,SSW,204,1.0,-999.0,73,-99.99,,,-99.99,,2013-12-08 17:52:00,
2013-12-08 11:12:00,3.0,-3.0,30.16,WSW,245,0.0,-999.0,74,-99.99,,,-99.99,,2013-12-08 18:12:00,
2013-12-08 11:22:00,3.0,-3.0,30.16,WSW,245,0.0,-999.0,74,-99.99,,,-99.99,,2013-12-08 18:22:00,
2013-12-08 11:42:00,4.0,-3.0,30.16,North,355,0.0,-999.0,72,-99.99,,,-99.99,,2013-12-08 18:42:00,
2013-12-08 11:52:00,4.0,-4.0,30.16,North,355,0.0,-999.0,69,-99.99,,,-99.99,,2013-12-08 18:52:00,
2013-12-08 12:22:00,3.0,-5.0,30.16,NE,46,1.0,-999.0,68,-99.99,,,-99.99,,2013-12-08 19:22:00,
2013-12-08 12:42:00,2.0,-6.0,30.17,NNE,15,2.0,-999.0,69,-99.99,,,-99.99,,2013-12-08 19:42:00,
2013-12-08 12:52:00,2.0,-5.0,30.18,SW,219,1.0,-999.0,72,-99.99,,,-99.99,,2013-12-08 19:52:00,
2013-12-08 13:11:00,3.0,-4.0,30.18,NW,317,1.0,-999.0,73,-99.99,,,-99.99,,2013-12-08 20:11:00,
2013-12-08 13:22:00,5.0,-4.0,30.19,SSW,195,2.0,-999.0,64,-99.99,,,-99.99,,2013-12-08 20:22:00,
2013-12-08 13:42:00,5.0,-4.0,30.19,SW,219,2.0,-999.0,66,-99.99,,,-99.99,,2013-12-08 20:42:00,
2013-12-08 13:53:00,3.0,-8.0,30.20,NW,306,2.0,-999.0,59,-99.99,,,-99.99,,2013-12-08 20:53:00,
2013-12-08 14:22:00,2.0,-9.0,30.21,NNW,336,1.0,-999.0,60,-99.99,,,-99.99,,2013-12-08 21:22:00,
2013-12-08 14:53:00,2.0,-9.0,30.20,North,10,2.0,-999.0,60,-99.99,,,-99.99,,2013-12-08 21:53:00,
2013-12-08 15:23:00,3.0,-7.0,30.19,East,92,0.0,-999.0,63,-99.99,,,-99.99,,2013-12-08 22:23:00,
2013-12-08 15:43:00,3.0,-9.0,30.18,SSW,204,1.0,-999.0,56,-99.99,,,-99.99,,2013-12-08 22:43:00,
2013-12-08 15:53:00,2.0,-9.0,30.20,SW,227,0.0,-999.0,59,-99.99,,,-99.99,,2013-12-08 22:53:00,
2013-12-08 16:22:00,1.0,-10.0,30.21,ENE,65,0.0,-999.0,58,-99.99,,,-99.99,,2013-12-08 23:22:00,
2013-12-08 16:42:00,0.0,-11.0,30.21,NE,39,0.0,-999.0,58,-99.99,,,-99.99,,2013-12-08 23:42:00,
2013-12-08 16:53:00,0.0,-10.0,30.22,NE,39,0.0,-999.0,62,-99.99,,,-99.99,,2013-12-08 23:53:00,
2013-12-08 17:11:00,-1.0,-10.0,30.23,NNE,28,0.0,-999.0,64,-99.99,,,-99.99,,2013-12-09 00:11:00,
2013-12-08 17:42:00,-1.0,-10.0,30.23,NNE,30,0.0,-999.0,65,-99.99,,,-99.99,,2013-12-09 00:42:00,
2013-12-08 17:52:00,-1.0,-10.0,30.24,NNE,28,0.0,-999.0,65,-99.99,,,-99.99,,2013-12-09 00:52:00,
2013-12-08 18:22:00,-1.0,-11.0,30.26,SSW,199,0.0,-999.0,63,-99.99,,,-99.99,,2013-12-09 01:22:00,
2013-12-08 18:42:00,-1.0,-11.0,30.27,West,261,0.0,-999.0,62,-99.99,,,-99.99,,2013-12-09 01:42:00,
2013-12-08 18:52:00,-1.0,-11.0,30.28,East,84,0.0,-999.0,62,-99.99,,,-99.99,,2013-12-09 01:52:00,
2013-12-08 19:21:00,-2.0,-11.0,30.31,NNE,13,0.0,-999.0,64,-99.99,,,-99.99,,2013-12-09 02:21:00,
2013-12-08 19:42:00,-3.0,-11.0,30.32,NNE,13,0.0,-999.0,66,-99.99,,,-99.99,,2013-12-09 02:42:00,
2013-12-08 19:53:00,-4.0,-12.0,30.32,NNE,13,0.0,-999.0,68,-99.99,,,-99.99,,2013-12-09 02:53:00,
2013-12-08 20:22:00,-6.0,-13.0,30.32,NNE,13,0.0,-999.0,69,-99.99,,,-99.99,,2013-12-09 03:22:00,
2013-12-08 20:43:00,-7.0,-14.0,30.33,NNE,13,0.0,-999.0,70,-99.99,,,-99.99,,2013-12-09 03:43:00,
2013-12-08 20:54:00,-8.0,-15.0,30.33,NNE,13,0.0,-999.0,71,-99.99,,,-99.99,,2013-12-09 03:54:00,
2013-12-08 21:13:00,-8.0,-15.0,30.33,NNE,13,0.0,-999.0,71,-99.99,,,-99.99,,2013-12-09 04:13:00,
2013-12-08 21:23:00,-8.0,-15.0,30.33,NNE,13,0.0,-999.0,71,-99.99,,,-99.99,,2013-12-09 04:23:00,
2013-12-08 21:53:00,-6.0,-13.0,30.34,North,9,0.0,-999.0,69,-99.99,,,-99.99,,2013-12-09 04:53:00,
2013-12-08 22:23:00,-6.0,-14.0,30.35,West,277,0.0,-999.0,67,-99.99,,,-99.99,,2013-12-09 05:23:00,
2013-12-08 22:42:00,-7.0,-15.0,30.35,West,277,0.0,-999.0,68,-99.99,,,-99.99,,2013-12-09 05:42:00,
2013-12-08 22:53:00,-9.0,-16.0,30.35,West,277,0.0,-999.0,70,-99.99,,,-99.99,,2013-12-09 05:53:00,
2013-12-08 23:22:00,-10.0,-17.0,30.36,West,277,0.0,-999.0,72,-99.99,,,-99.99,,2013-12-09 06:22:00,
2013-12-08 23:52:00,-9.0,-16.0,30.36,West,277,0.0,-999.0,72,-99.99,,,-99.99,,2013-12-09 06:52:00,